Weather History for Pratt, KS

Change the Weather History Date:

Sunday, February 17, 2013

  Actual Average (KP28) Record (KP28)
Temperature  
Mean Temperature 48 °F 39 °F  
Max Temperature 69 °F 51 °F 82 °F (1970)
Min Temperature 28 °F 26 °F -5 °F (1903)
Degree Days  
Heating Degree Days 16 26  
Month to date heating degree days 481  
Since 1 July heating degree days 3258  
Cooling Degree Days 0 0  
Month to date cooling degree days 0  
Year to date cooling degree days 0  
Moisture  
Dew Point 25 °F    
Average Humidity 48    
Maximum Humidity 87    
Minimum Humidity 16    
Precipitation  
Precipitation 0.00 in 0.03 in 1.51 in (1911)
Month to date precipitation 0.54  
Year to date precipitation 1.25  
Snow  
Snow 0.00 in 0.10 in - ()
Month to date snowfall 1.7  
Since 1 July snowfall 7.9  
Snow Depth -    
Sea Level Pressure  
Sea Level Pressure 29.79 in    
Wind  
Wind Speed 9 mph (SSW)    
Max Wind Speed 22 mph    
Max Gust Speed 28 mph    
Visibility 10 miles    
Events      
T = Trace of Precipitation, MM = Missing Value Source: NWS Daily Summary

Daily Weather History Graph

Daily Weather History Graph

Search for Another Location

Airport:

Trip Planner

Search our weather history database for the weather conditions in past years. The results will help you decide how hot, cold, wet, or windy it might be!

Date:

Astronomy

Feb. 17, 2013 Rise Set
Actual Time 7:21 AM CST 6:16 PM CST
Civil Twilight 6:55 AM CST 6:43 PM CST
Nautical Twilight 6:24 AM CST 7:14 PM CST
Astronomical Twilight 5:54 AM CST 7:44 PM CST
Moon 11:24 AM CST (2/17) 1:05 AM CST (2/17)
Length of Visible Light 11h 48m
Length of Day
10h 54m
Waxing Crescent, 49% of the Moon is Illuminated
Feb 17
Waxing Crescent
Feb 17
First Quarter
Feb 25
Full
Mar 4
Last Quarter
Mar 11
New

Hourly Weather History & Observations

Time (CST) Temp. Windchill Dew Point Humidity Pressure Visibility Wind Dir Wind Speed Gust Speed Precip Events Conditions
12:15 AM 32.0 °F 26.4 °F 28.4 °F 87% 29.98 in 10.0 mi WSW 5.8 mph - N/A   Clear
12:35 AM 32.0 °F 25.6 °F 26.6 °F 80% 29.98 in 10.0 mi WSW 6.9 mph - N/A   Clear
12:55 AM 32.0 °F 25.6 °F 26.6 °F 80% 29.97 in 10.0 mi WSW 6.9 mph - N/A   Clear
1:15 AM 32.0 °F 26.4 °F 26.6 °F 80% 29.97 in 10.0 mi WSW 5.8 mph - N/A   Clear
1:35 AM 33.8 °F 27.7 °F 26.6 °F 75% 29.97 in 10.0 mi West 6.9 mph - N/A   Clear
1:55 AM 33.8 °F 30.8 °F 26.6 °F 75% 29.96 in 10.0 mi West 3.5 mph - N/A   Clear
2:15 AM 35.6 °F - 26.6 °F 70% 29.96 in 10.0 mi Calm Calm - N/A   Clear
2:35 AM 32.0 °F - 24.8 °F 75% 29.97 in 10.0 mi Calm Calm - N/A   Clear
2:55 AM 32.0 °F 24.8 °F 24.8 °F 75% 29.96 in 10.0 mi SW 8.1 mph - N/A   Clear
3:15 AM 32.0 °F 26.4 °F 24.8 °F 75% 29.96 in 10.0 mi SW 5.8 mph - N/A   Clear
3:35 AM 32.0 °F 24.2 °F 24.8 °F 75% 29.95 in 10.0 mi WSW 9.2 mph - N/A   Clear
3:55 AM 30.2 °F 22.6 °F 23.0 °F 75% 29.95 in 10.0 mi WSW 8.1 mph - N/A   Clear
4:15 AM 30.2 °F 21.9 °F 23.0 °F 75% 29.94 in 10.0 mi WSW 9.2 mph - N/A   Clear
4:35 AM 28.4 °F 22.2 °F 23.0 °F 80% 29.94 in 10.0 mi WSW 5.8 mph - N/A   Clear
4:55 AM 28.4 °F 22.2 °F 23.0 °F 80% 29.94 in 10.0 mi West 5.8 mph - N/A   Clear
5:15 AM 30.2 °F 22.6 °F 23.0 °F 75% 29.94 in 10.0 mi West 8.1 mph - N/A   Clear
5:55 AM 28.4 °F 22.2 °F 23.0 °F 80% 29.93 in 10.0 mi West 5.8 mph - N/A   Clear
6:15 AM 28.4 °F 23.3 °F 23.0 °F 80% 29.93 in 10.0 mi West 4.6 mph - N/A   Clear
6:35 AM 28.4 °F 21.2 °F 21.2 °F 74% 29.93 in 10.0 mi West 6.9 mph - N/A   Clear
6:55 AM 28.4 °F 23.3 °F 21.2 °F 74% 29.92 in 10.0 mi West 4.6 mph - N/A   Clear
7:15 AM 28.4 °F 21.2 °F 21.2 °F 74% 29.91 in 10.0 mi West 6.9 mph - N/A   Clear
7:35 AM 28.4 °F 24.6 °F 21.2 °F 74% 29.90 in 10.0 mi WSW 3.5 mph - N/A   Clear
7:55 AM 28.4 °F 24.6 °F 21.2 °F 74% 29.90 in 10.0 mi West 3.5 mph - N/A   Clear
8:15 AM 32.0 °F 28.7 °F 26.6 °F 80% 29.90 in 10.0 mi West 3.5 mph - N/A   Clear
8:35 AM 35.6 °F - 26.6 °F 70% 29.89 in 10.0 mi Calm Calm - N/A   Clear
8:55 AM 41.0 °F - 32.0 °F 70% 29.89 in 10.0 mi Calm Calm - N/A   Clear
9:15 AM 44.6 °F 43.1 °F 28.4 °F 53% 29.89 in 10.0 mi SSW 3.5 mph - N/A   Clear
9:35 AM 50.0 °F - 26.6 °F 40% 29.89 in 10.0 mi SSW 8.1 mph - N/A   Clear
9:55 AM 51.8 °F - 26.6 °F 38% 29.88 in 10.0 mi South 8.1 mph - N/A   Clear
10:15 AM 53.6 °F - 24.8 °F 33% 29.88 in 10.0 mi South 11.5 mph - N/A   Clear
10:35 AM 55.4 °F - 24.8 °F 31% 29.87 in 10.0 mi South 12.7 mph - N/A   Clear
10:55 AM 55.4 °F - 26.6 °F 33% 29.87 in 10.0 mi South 11.5 mph - N/A   Clear
11:15 AM 59.0 °F - 26.6 °F 29% 29.86 in 10.0 mi South 12.7 mph - N/A   Clear
11:35 AM 57.2 °F - 26.6 °F 31% 29.86 in 10.0 mi South 13.8 mph - N/A   Clear
12:15 PM 60.8 °F - 26.6 °F 27% 29.83 in 10.0 mi South 10.4 mph - N/A   Clear
12:55 PM 64.4 °F - 21.2 °F 19% 29.79 in 10.0 mi South 16.1 mph 21.9 mph N/A   Clear
1:15 PM 68.0 °F - 19.4 °F 16% 29.77 in 10.0 mi SSW 16.1 mph - N/A   Clear
1:35 PM 66.2 °F - 21.2 °F 18% 29.76 in 10.0 mi South 15.0 mph 21.9 mph N/A   Clear
1:55 PM 68.0 °F - 21.2 °F 17% 29.74 in 10.0 mi South 19.6 mph - N/A   Clear
2:15 PM 68.0 °F - 21.2 °F 17% 29.73 in 10.0 mi South 13.8 mph - N/A   Clear
2:35 PM 69.8 °F - 21.2 °F 16% 29.72 in 10.0 mi South 19.6 mph 26.5 mph N/A   Clear
2:55 PM 68.0 °F - 23.0 °F 18% 29.71 in 10.0 mi South 18.4 mph - N/A   Clear
3:15 PM 68.0 °F - 26.6 °F 21% 29.70 in 10.0 mi South 17.3 mph - N/A   Clear
3:35 PM 68.0 °F - 26.6 °F 21% 29.69 in 10.0 mi South 21.9 mph 27.6 mph N/A   Clear
3:55 PM 68.0 °F - 26.6 °F 21% 29.68 in 10.0 mi South 19.6 mph 24.2 mph N/A   Clear
4:15 PM 66.2 °F - 26.6 °F 23% 29.67 in 10.0 mi South 18.4 mph 24.2 mph N/A   Clear
4:35 PM 66.2 °F - 26.6 °F 23% 29.66 in 10.0 mi South 16.1 mph 20.7 mph N/A   Clear
4:55 PM 66.2 °F - 26.6 °F 23% 29.65 in 10.0 mi South 16.1 mph 25.3 mph N/A   Clear
5:15 PM 66.2 °F - 21.2 °F 18% 29.64 in 10.0 mi South 17.3 mph 21.9 mph N/A   Clear
5:35 PM 64.4 °F - 21.2 °F 19% 29.64 in 10.0 mi South 16.1 mph 23.0 mph N/A   Clear
5:55 PM 62.6 °F - 23.0 °F 22% 29.63 in 10.0 mi South 15.0 mph 19.6 mph N/A   Clear
6:15 PM 60.8 °F - 23.0 °F 23% 29.64 in 10.0 mi South 16.1 mph - N/A   Clear
6:35 PM 59.0 °F - 26.6 °F 29% 29.64 in 10.0 mi South 20.7 mph 27.6 mph N/A   Clear
6:55 PM 57.2 °F - 26.6 °F 31% 29.64 in 10.0 mi South 19.6 mph 24.2 mph N/A   Clear
7:15 PM 55.4 °F - 26.6 °F 33% 29.64 in 10.0 mi South 16.1 mph - N/A   Clear
7:35 PM 53.6 °F - 26.6 °F 35% 29.63 in 10.0 mi South 18.4 mph 21.9 mph N/A   Clear
7:55 PM 53.6 °F - 28.4 °F 38% 29.62 in 10.0 mi South 16.1 mph - N/A   Clear
8:15 PM 53.6 °F - 26.6 °F 35% 29.62 in 10.0 mi South 13.8 mph - N/A   Clear
8:35 PM 53.6 °F - 26.6 °F 35% 29.62 in 10.0 mi SSE 12.7 mph - N/A   Clear
8:55 PM 53.6 °F - 26.6 °F 35% 29.61 in 10.0 mi SSE 10.4 mph - N/A   Clear
9:15 PM 51.8 °F - 26.6 °F 38% 29.60 in 10.0 mi South 9.2 mph 16.1 mph N/A   Clear
9:35 PM 50.0 °F - 26.6 °F 40% 29.60 in 10.0 mi South 9.2 mph - N/A   Clear
9:55 PM 50.0 °F - 26.6 °F 40% 29.59 in 10.0 mi SSE 11.5 mph - N/A   Clear
10:15 PM 48.2 °F - 26.6 °F 43% 29.57 in 10.0 mi SSE 9.2 mph - N/A   Clear
10:35 PM 48.2 °F - 26.6 °F 43% 29.57 in 10.0 mi South 13.8 mph - N/A   Clear
10:55 PM 50.0 °F - 26.6 °F 40% 29.55 in 10.0 mi South 18.4 mph - N/A   Clear
11:15 PM 50.0 °F - 28.4 °F 43% 29.54 in 10.0 mi South 17.3 mph - N/A   Clear
11:35 PM 46.4 °F 40.4 °F 28.4 °F 50% 29.53 in 10.0 mi South 13.8 mph 20.7 mph N/A   Clear
11:55 PM 46.4 °F 39.8 °F 28.4 °F 50% 29.52 in 10.0 mi South 16.1 mph - N/A   Clear